• In Kazakhstan
  • List of Countries
  • For 7 days
  • Water Temperature
  • Satellite Maps
  • Weather Map
  • News
  • Weather Widgets
  • user-avatar
    Login

    Hourly Weather Melbourne

    Today, 27 July, Thursday

    Time Temperature Precipitation Wind Pressure Humidity
    00:00 +7°C° 0 mm 1 mps 766 mmHg 92%
    01:00 +7°C° 0 mm 1 mps 767 mmHg 93%
    02:00 +6°C° 0 mm 2 mps 766 mmHg 93%
    03:00 +6°C° 0 mm 2 mps 766 mmHg 93%
    04:00 +6°C° 0 mm 2 mps 766 mmHg 92%
    05:00 +6°C° 0 mm 2 mps 766 mmHg 92%
    06:00 +6°C° 0 mm 2 mps 765 mmHg 92%
    07:00 +5°C° 0 mm 3 mps 765 mmHg 91%
    08:00 +7°C° 0 mm 3 mps 765 mmHg 86%
    09:00 +8°C° 0 mm 4 mps 765 mmHg 81%
    10:00 +10°C° 0 mm 4 mps 765 mmHg 77%
    11:00 +10°C° 0 mm 5 mps 764 mmHg 72%
    12:00 +13°C° 0 mm 5 mps 764 mmHg 67%
    13:00 +14°C° 0 mm 6 mps 763 mmHg 62%
    14:00 +14°C° 0 mm 6 mps 762 mmHg 64%
    15:00 +13°C° 0 mm 6 mps 761 mmHg 66%
    16:00 +12°C° 0 mm 7 mps 760 mmHg 68%
    17:00 +13°C° 0 mm 6 mps 760 mmHg 68%
    18:00 +13°C° 0 mm 6 mps 759 mmHg 68%
    19:00 +11°C° 0 mm 6 mps 759 mmHg 68%
    20:00 +12°C° 1.1 mm 5 mps 759 mmHg 74%
    21:00 +10°C° 1.1 mm 5 mps 759 mmHg 79%
    22:00 +10°C° 1.1 mm 5 mps 759 mmHg 85%
    23:00 +9°C° 0.8 mm 5 mps 759 mmHg 87%

    Tomorrow, 28 July, Friday

    Time Temperature Precipitation Wind Pressure Humidity
    00:00 +9°C° 0.8 mm 5 mps 759 mmHg 90%
    01:00 +8°C° 0.8 mm 4 mps 759 mmHg 92%
    02:00 +8°C° 0 mm 4 mps 760 mmHg 92%
    03:00 +7°C° 0 mm 4 mps 760 mmHg 92%
    04:00 +7°C° 0 mm 4 mps 760 mmHg 91%
    05:00 +7°C° 0 mm 4 mps 761 mmHg 91%
    06:00 +6°C° 0 mm 4 mps 761 mmHg 91%
    07:00 +7°C° 0 mm 3 mps 762 mmHg 91%
    08:00 +8°C° 0 mm 3 mps 762 mmHg 87%
    09:00 +10°C° 0 mm 4 mps 763 mmHg 83%
    10:00 +11°C° 0 mm 4 mps 763 mmHg 79%
    11:00 +12°C° 0 mm 4 mps 763 mmHg 71%
    12:00 +13°C° 0 mm 3 mps 763 mmHg 64%
    13:00 +14°C° 0 mm 3 mps 763 mmHg 57%
    14:00 +14°C° 0 mm 3 mps 763 mmHg 57%
    15:00 +15°C° 0 mm 2 mps 763 mmHg 58%
    16:00 +15°C° 0 mm 2 mps 763 mmHg 58%
    17:00 +13°C° 0 mm 1 mps 763 mmHg 65%
    18:00 +12°C° 0 mm 1 mps 763 mmHg 72%
    19:00 +10°C° 0 mm 1 mps 763 mmHg 79%
    20:00 +9°C° 0 mm 2 mps 763 mmHg 80%
    21:00 +9°C° 0 mm 2 mps 764 mmHg 80%
    22:00 +9°C° 0 mm 3 mps 764 mmHg 81%
    23:00 +8°C° 0 mm 4 mps 763 mmHg 78%

    Day after tomorrow, 29 July, Saturday

    Time Temperature Precipitation Wind Pressure Humidity
    00:00 +8°C° 0 mm 4 mps 762 mmHg 76%
    01:00 +8°C° 0 mm 5 mps 762 mmHg 73%
    02:00 +8°C° 0 mm 5 mps 761 mmHg 71%
    03:00 +9°C° 0 mm 6 mps 761 mmHg 68%
    04:00 +9°C° 0 mm 7 mps 760 mmHg 66%
    05:00 +9°C° 0 mm 7 mps 760 mmHg 64%
    06:00 +9°C° 0 mm 8 mps 760 mmHg 63%
    07:00 +10°C° 0 mm 8 mps 759 mmHg 61%
    08:00 +10°C° 0 mm 9 mps 759 mmHg 59%
    09:00 +11°C° 0 mm 9 mps 758 mmHg 58%
    10:00 +12°C° 0 mm 9 mps 757 mmHg 56%
    11:00 +13°C° 0 mm 9 mps 756 mmHg 54%
    12:00 +15°C° 0 mm 9 mps 755 mmHg 52%
    13:00 +16°C° 0 mm 9 mps 753 mmHg 50%
    14:00 +16°C° 0 mm 9 mps 753 mmHg 51%
    15:00 +16°C° 0 mm 8 mps 752 mmHg 52%
    16:00 +17°C° 0 mm 7 mps 752 mmHg 52%
    17:00 +16°C° 0.1 mm 6 mps 752 mmHg 56%
    18:00 +16°C° 0.1 mm 5 mps 752 mmHg 59%
    19:00 +15°C° 0.1 mm 4 mps 751 mmHg 62%
    20:00 +14°C° 0.9 mm 4 mps 752 mmHg 73%
    21:00 +13°C° 0.9 mm 4 mps 753 mmHg 83%
    22:00 +13°C° 0.9 mm 3 mps 754 mmHg 93%
    23:00 +12°C° 0.6 mm 4 mps 754 mmHg 92%

    30 July, Sunday

    Time Temperature Precipitation Wind Pressure Humidity
    00:00 +12°C° 0.6 mm 4 mps 754 mmHg 92%
    01:00 +12°C° 0.6 mm 4 mps 754 mmHg 92%
    02:00 +11°C° 0 mm 4 mps 755 mmHg 91%
    03:00 +10°C° 0 mm 4 mps 755 mmHg 91%
    04:00 +8°C° 0 mm 4 mps 755 mmHg 90%
    05:00 +8°C° 0 mm 4 mps 756 mmHg 90%
    06:00 +9°C° 0 mm 3 mps 756 mmHg 90%
    07:00 +9°C° 0 mm 3 mps 757 mmHg 90%
    08:00 +10°C° 0 mm 4 mps 757 mmHg 86%
    09:00 +11°C° 0 mm 4 mps 757 mmHg 82%
    10:00 +12°C° 0 mm 4 mps 758 mmHg 78%
    11:00 +12°C° 0.2 mm 4 mps 757 mmHg 77%
    12:00 +13°C° 0.2 mm 5 mps 757 mmHg 76%
    13:00 +13°C° 0.2 mm 5 mps 757 mmHg 74%
    14:00 +13°C° 0.5 mm 5 mps 757 mmHg 76%
    15:00 +13°C° 0.5 mm 5 mps 757 mmHg 78%
    16:00 +13°C° 0.5 mm 4 mps 757 mmHg 81%
    17:00 +12°C° 0.4 mm 4 mps 757 mmHg 83%
    18:00 +11°C° 0.4 mm 4 mps 758 mmHg 85%
    19:00 +10°C° 0.4 mm 3 mps 758 mmHg 88%
    20:00 +10°C° 0 mm 3 mps 759 mmHg 88%
    21:00 +9°C° 0 mm 3 mps 759 mmHg 88%
    22:00 +9°C° 0 mm 3 mps 759 mmHg 88%
    23:00 +9°C° 0 mm 3 mps 759 mmHg 88%

    31 July, Monday

    Time Temperature Precipitation Wind Pressure Humidity
    00:00 +8°C° 0 mm 3 mps 759 mmHg 89%
    01:00 +8°C° 0 mm 3 mps 759 mmHg 90%
    02:00 +8°C° 0 mm 3 mps 760 mmHg 90%
    03:00 +7°C° 0 mm 3 mps 760 mmHg 90%
    04:00 +7°C° 0 mm 3 mps 760 mmHg 91%
    05:00 +7°C° 0 mm 3 mps 760 mmHg 91%
    06:00 +5°C° 0 mm 3 mps 761 mmHg 92%
    07:00 +5°C° 0 mm 3 mps 761 mmHg 92%
    08:00 +7°C° 0 mm 3 mps 762 mmHg 87%
    09:00 +9°C° 0 mm 3 mps 762 mmHg 81%
    10:00 +10°C° 0 mm 3 mps 762 mmHg 76%
    11:00 +11°C° 0 mm 3 mps 762 mmHg 70%
    12:00 +12°C° 0 mm 3 mps 762 mmHg 64%
    13:00 +12°C° 0 mm 4 mps 762 mmHg 58%
    14:00 +12°C° 0.1 mm 4 mps 762 mmHg 62%
    15:00 +11°C° 0.1 mm 3 mps 762 mmHg 67%
    16:00 +11°C° 0.1 mm 3 mps 762 mmHg 72%
    17:00 +10°C° 0.1 mm 3 mps 763 mmHg 76%
    18:00 +8°C° 0.1 mm 3 mps 763 mmHg 80%
    19:00 +7°C° 0.1 mm 3 mps 764 mmHg 84%
    20:00 +7°C° 0.1 mm 3 mps 764 mmHg 86%
    21:00 +5°C° 0.1 mm 4 mps 764 mmHg 87%
    22:00 +5°C° 0.1 mm 4 mps 765 mmHg 88%
    23:00 +5°C° 0.1 mm 4 mps 765 mmHg 88%

    1 August, Tuesday

    Time Temperature Precipitation Wind Pressure Humidity
    00:00 +5°C° 0.1 mm 4 mps 765 mmHg 88%
    01:00 +4°C° 0.1 mm 3 mps 765 mmHg 88%
    02:00 +4°C° 0 mm 3 mps 765 mmHg 89%
    03:00 +4°C° 0 mm 3 mps 766 mmHg 89%
    04:00 +4°C° 0 mm 3 mps 766 mmHg 90%
    05:00 +4°C° 0 mm 3 mps 766 mmHg 90%
    06:00 +4°C° 0 mm 3 mps 767 mmHg 90%
    07:00 +4°C° 0 mm 3 mps 767 mmHg 90%
    08:00 +5°C° 0 mm 3 mps 767 mmHg 86%
    09:00 +8°C° 0 mm 3 mps 768 mmHg 82%
    10:00 +9°C° 0 mm 3 mps 768 mmHg 78%
    11:00 +10°C° 0 mm 3 mps 768 mmHg 72%
    12:00 +11°C° 0 mm 3 mps 768 mmHg 67%
    13:00 +11°C° 0 mm 3 mps 767 mmHg 61%
    14:00 +11°C° 0 mm 3 mps 767 mmHg 61%
    15:00 +11°C° 0 mm 3 mps 767 mmHg 61%
    16:00 +11°C° 0 mm 3 mps 767 mmHg 62%
    17:00 +9°C° 0 mm 2 mps 768 mmHg 68%
    18:00 +8°C° 0 mm 2 mps 768 mmHg 75%
    19:00 +6°C° 0 mm 2 mps 768 mmHg 82%
    20:00 +7°C° 0 mm 1 mps 769 mmHg 83%
    21:00 +7°C° 0 mm 1 mps 769 mmHg 85%
    22:00 +6°C° 0 mm 1 mps 769 mmHg 86%
    23:00 +6°C° 0 mm 1 mps 769 mmHg 88%
    Show more